[[{"header":{"parameterUnit":"m.s-1","parameterCategory":2,"la1":30.2991,"la2":30.254,"lo1":-89.0895,"lo2":-89.0444,"dy":0.0017,"dx":0.0017,"nx":28,"ny":28,"refTime":"2026-02-16T09:00:00:Z","depth":"0","parameterNumber":2,"parameterNumberName":"U-component_of_CURRENTS"},"data":[0,0,0,0,0,0,0,0,0,0,0,0,0,0,0,0,0,0,0,0,0,0,0,0,0,0,0,0,0,0,0,0,0,0,0,0,0,0,0,0,0,0,0,0,0,0,0,0,0,0,0,0,0,0,0,0,0,0,0.2147,0.2147,0,0.216,0.216,0.216,0.2148,0.2148,0.2147,0.2147,0.213,0.213,0.213,0,0,0,0,0,0,0,0,0,0,0,0,0,0.2115,0.2116,0.2147,0.2147,0.2148,0.216,0.216,0.216,0.2148,0.2148,0.2147,0.2147,0.213,0.213,0.213,0,0,0,0,0,0,0,0,0,0,0,0,0,0.2127,0.2116,0.2147,0.2145,0.2145,0.216,0.216,0.216,0.2148,0.2148,0.2147,0.2147,0.213,0.213,0.213,0.2137,0,0,0.2129,0.2129,0,0,0,0,0,0,0,0,0.2126,0.2128,0.2145,0.2145,0.2145,0.2154,0.2142,0.2151,0.2148,0.2145,0.2147,0.2147,0.2137,0.2136,0.2137,0.2136,0.2135,0.2129,0.2129,0.2129,0.2129,0,0,0,0,0,0,0,0.2125,0.2127,0.215,0.2145,0.2146,0.2144,0.2145,0.2144,0.2141,0.2145,0.2145,0.2149,0.2136,0.2137,0.2136,0.2135,0.2129,0.2129,0.2129,0.2128,0.2166,0.2167,0,0,0,0,0,0,0.2128,0.2126,0.215,0.2151,0.2137,0.2145,0.2146,0.215,0.2142,0.2141,0.215,0.2149,0.2138,0.2137,0.2136,0.2164,0.2129,0.2128,0.2128,0.2165,0.2166,0.2167,0,0,0,0,0,0,0.2127,0.213,0.2149,0.214,0.2143,0.2146,0.215,0.215,0.2155,0.2146,0.2144,0.2155,0.2138,0.2136,0.2144,0.2162,0.2128,0.2128,0.2163,0.2165,0.2167,0.2207,0,0,0,0,0,0,0.2126,0.213,0.2132,0.2141,0.2144,0.2164,0.2151,0.2151,0.2159,0.2158,0.215,0.2148,0.2137,0.2145,0.2144,0.2161,0.2128,0.2162,0.2164,0.2166,0.2205,0.221,0.2215,0,0,0,0,0,0.2125,0.2131,0.2132,0.2135,0.2147,0.2165,0.2166,0.2166,0.216,0.2167,0.2163,0.2148,0.2158,0.2146,0.2144,0.2162,0.2161,0.2164,0.2166,0.2202,0.2209,0.2215,0,0,0,0,0,0,0.2113,0.2131,0.2132,0.2141,0.2155,0.2164,0.217,0.2171,0.2174,0.2172,0.216,0.2158,0.2175,0.2165,0.2151,0.2181,0.2158,0.2161,0.2186,0.2193,0.2198,0.2209,0.2128,0,0,0,0,0,0.2114,0.2125,0.2141,0.2148,0.2158,0.2165,0.2172,0.2175,0.218,0.2181,0.2177,0.2177,0.2186,0.2185,0.2189,0.2201,0.221,0.2213,0.2219,0.2223,0.2233,0.2265,0.2274,0.2176,0.2176,0.2176,0,0,0.2111,0.2123,0.2127,0.2147,0.2157,0.2176,0.2168,0.2184,0.2199,0.2179,0.2195,0.2196,0.2195,0.2212,0.2219,0.2204,0.2257,0.2226,0.223,0.2238,0.2269,0.2279,0.2287,0.2178,0.2177,0.2177,0,0,0.2115,0.2123,0.2136,0.2153,0.2175,0.2185,0.2192,0.2208,0.2215,0.2231,0.2227,0.2242,0.2243,0.2253,0.2257,0.2295,0.2288,0.2293,0.2323,0.2355,0.2363,0.237,0.2399,0.2409,0.2291,0.2291,0.2291,0,0.2109,0.2128,0.2142,0.2163,0.2179,0.2191,0.2212,0.2225,0.224,0.2254,0.2241,0.2272,0.2266,0.2302,0.2314,0.2307,0.2322,0.2297,0.2362,0.2369,0.2376,0.2404,0.2414,0.2293,0.2293,0.2293,0.2293,0,0.2125,0.2143,0.2155,0.2185,0.2205,0.2225,0.2251,0.227,0.2278,0.2292,0.2328,0.2329,0.2348,0.235,0.234,0.2391,0.2385,0.2368,0.2345,0.2389,0.2415,0.2425,0.2297,0.2296,0.2295,0.2294,0,0,0.2102,0.2155,0.2157,0.2175,0.2219,0.2233,0.2274,0.2312,0.2338,0.2356,0.2392,0.2412,0.2417,0.2422,0.242,0.2443,0.2501,0.2426,0.2426,0.2453,0.2574,0.256,0.2569,0.2494,0.2496,0.2498,0.2574,0,0.2109,0.2143,0.2175,0.2209,0.2229,0.2266,0.2301,0.2338,0.2368,0.2406,0.2429,0.2458,0.2444,0.2453,0.2481,0.2499,0.2529,0.2482,0.2529,0.2531,0.2511,0.258,0.2504,0.2565,0.2584,0.2585,0.2587,0,0.2111,0.2135,0.2167,0.222,0.2233,0.2256,0.2315,0.235,0.2416,0.2443,0.249,0.2507,0.2559,0.2529,0.2599,0.2571,0.2581,0.2589,0.2592,0.2571,0.2535,0.2524,0.2582,0.2543,0.2602,0.26,0.2599,0,0.2073,0.2127,0.215,0.2167,0.2229,0.2252,0.2286,0.2353,0.2399,0.2468,0.2511,0.2567,0.2606,0.2633,0.2663,0.2633,0.2735,0.2693,0.2693,0.2692,0.2634,0.2624,0.2658,0.2744,0.2744,0.2744,0.2744,0,0.2062,0.2078,0.2129,0.2138,0.2171,0.2221,0.2268,0.2319,0.2405,0.2454,0.2522,0.2577,0.2634,0.2696,0.2699,0.2744,0.277,0.2722,0.272,0.2646,0.2637,0.2604,0.2581,0.2747,0.2746,0.2746,0.2745,0,0.2015,0.2051,0.2076,0.2133,0.2152,0.2169,0.2258,0.2292,0.2384,0.2457,0.2484,0.2612,0.2688,0.2747,0.2806,0.2799,0.2763,0.2832,0.2744,0.2731,0.2668,0.2649,0.2578,0.249,0.284,0.2841,0.2841,0,0.1994,0.2001,0.2056,0.2066,0.209,0.213,0.2159,0.2263,0.231,0.2463,0.2493,0.2621,0.2689,0.2809,0.283,0.2868,0.2775,0.2803,0.2729,0.268,0.2658,0.2539,0.246,0.2671,0.2669,0.2668,0.2668,0,0.195,0.1968,0.1987,0.2013,0.2036,0.2071,0.2122,0.2166,0.2278,0.2362,0.2467,0.2545,0.2692,0.2724,0.2807,0.2808,0.2683,0.2783,0.2756,0.256,0.2409,0.2317,0.2606,0.2659,0.266,0.266,0.2661,0.2661,0.1911,0.191,0.1932,0.1951,0.1976,0.1988,0.199,0.2064,0.2138,0.2237,0.2364,0.246,0.2599,0.2718,0.2707,0.2682,0.263,0.2607,0.26,0.2492,0.2368,0.2644,0.2675,0.2676,0.2677,0.2678,0.2679,0,0.185,0.1855,0.1869,0.1879,0.1867,0.1909,0.1945,0.1937,0.1977,0.212,0.2209,0.2368,0.2447,0.254,0.2603,0.2526,0.238,0.246,0.228,0.2217,0.25,0.2455,0.2411,0.2411,0.2411,0.2411,0.2411,0.2411,0.1816,0.1798,0.1805,0.1763,0.1765,0.1722,0.1718,0.1737,0.1817,0.1919,0.2026,0.2149,0.2402,0.2544,0.2519,0.2447,0.2243,0.2152,0.212,0.2352,0.2364,0.2376,0.2328,0.2259,0.2259,0.1732,0.1728,0.1725]},{"header":{"parameterUnit":"m.s-1","parameterCategory":2,"la1":30.2991,"la2":30.254,"lo1":-89.0895,"lo2":-89.0444,"dy":0.0017,"dx":0.0017,"nx":28,"ny":28,"refTime":"2026-02-16T09:00:00:Z","depth":"0","parameterNumber":3,"parameterNumberName":"V-component_of_CURRENTS"},"data":[0,0,0,0,0,0,0,0,0,0,0,0,0,0,0,0,0,0,0,0,0,0,0,0,0,0,0,0,0,0,0,0,0,0,0,0,0,0,0,0,0,0,0,0,0,0,0,0,0,0,0,0,0,0,0,0,0,0,-0.0135,-0.0135,0,-0.0185,-0.0186,-0.0187,-0.0224,-0.0224,-0.0224,-0.0225,-0.0291,-0.0293,-0.0294,0,0,0,0,0,0,0,0,0,0,0,0,0,-0.0121,-0.0121,-0.0135,-0.0135,-0.0136,-0.0185,-0.0186,-0.0187,-0.0224,-0.0224,-0.0224,-0.0225,-0.0291,-0.0293,-0.0295,0,0,0,0,0,0,0,0,0,0,0,0,0,-0.0146,-0.0121,-0.0135,-0.0159,-0.0161,-0.0185,-0.0186,-0.0187,-0.0224,-0.0224,-0.0225,-0.0225,-0.029,-0.0292,-0.0295,-0.0306,0,0,-0.0302,-0.0303,0,0,0,0,0,0,0,0,-0.0145,-0.0147,-0.0155,-0.0157,-0.016,-0.0197,-0.0205,-0.0227,-0.0224,-0.0202,-0.0225,-0.0225,-0.026,-0.0265,-0.0276,-0.0309,-0.0312,-0.0303,-0.0304,-0.0305,-0.0306,0,0,0,0,0,0,0,-0.0143,-0.0145,-0.0157,-0.0155,-0.0158,-0.0184,-0.0187,-0.021,-0.0231,-0.0204,-0.0207,-0.0209,-0.0262,-0.0274,-0.0278,-0.0313,-0.0303,-0.0305,-0.0306,-0.0307,-0.0353,-0.0353,0,0,0,0,0,0,-0.0129,-0.0143,-0.0155,-0.0158,-0.015,-0.0183,-0.0188,-0.0186,-0.0231,-0.0237,-0.0209,-0.021,-0.027,-0.0275,-0.0281,-0.0283,-0.0305,-0.0307,-0.0309,-0.0353,-0.0353,-0.0353,0,0,0,0,0,0,-0.0129,-0.013,-0.0153,-0.0151,-0.0155,-0.0183,-0.0182,-0.0187,-0.0196,-0.0233,-0.024,-0.0211,-0.027,-0.0277,-0.0294,-0.0287,-0.0309,-0.0311,-0.0354,-0.0353,-0.0353,-0.0297,0,0,0,0,0,0,-0.0128,-0.0129,-0.0125,-0.0149,-0.0154,-0.0158,-0.0181,-0.0188,-0.0196,-0.0199,-0.0238,-0.0244,-0.0271,-0.029,-0.0296,-0.0291,-0.0313,-0.0354,-0.0354,-0.0353,-0.0299,-0.0295,-0.0291,0,0,0,0,0,-0.0128,-0.0114,-0.0124,-0.0126,-0.0147,-0.0157,-0.0162,-0.0185,-0.0196,-0.0195,-0.0221,-0.0243,-0.0292,-0.0292,-0.0299,-0.0294,-0.0354,-0.0354,-0.0353,-0.0301,-0.0296,-0.0291,0,0,0,0,0,0,-0.0104,-0.0117,-0.0129,-0.012,-0.0135,-0.0163,-0.0163,-0.0179,-0.02,-0.0202,-0.0239,-0.0248,-0.0261,-0.0284,-0.0283,-0.0306,-0.0327,-0.0328,-0.0285,-0.028,-0.0276,-0.0256,-0.0315,0,0,0,0,0,-0.0096,-0.0092,-0.0111,-0.0105,-0.0109,-0.0136,-0.0143,-0.0157,-0.0178,-0.0187,-0.0214,-0.0242,-0.0265,-0.0277,-0.0301,-0.0312,-0.0332,-0.0314,-0.031,-0.0306,-0.0295,-0.0323,-0.032,-0.0351,-0.0351,-0.0351,0,0,-0.0086,-0.0092,-0.009,-0.01,-0.0114,-0.011,-0.0141,-0.0144,-0.0143,-0.0191,-0.0197,-0.0229,-0.0265,-0.0277,-0.0285,-0.0296,-0.0307,-0.0305,-0.0302,-0.0293,-0.0322,-0.0319,-0.0316,-0.0351,-0.0351,-0.0351,0,0,-0.0057,-0.0067,-0.0052,-0.006,-0.0073,-0.0088,-0.0085,-0.0109,-0.0121,-0.0132,-0.0166,-0.0188,-0.0225,-0.0247,-0.0264,-0.0251,-0.0285,-0.0263,-0.0226,-0.0252,-0.025,-0.0248,-0.0264,-0.0264,-0.026,-0.026,-0.026,0,-0.0044,-0.0028,-0.005,-0.0038,-0.0037,-0.0072,-0.0054,-0.0073,-0.0099,-0.0104,-0.0125,-0.0175,-0.0208,-0.0221,-0.022,-0.0241,-0.0259,-0.024,-0.0246,-0.0245,-0.0244,-0.0261,-0.0262,-0.0258,-0.0258,-0.0258,-0.0258,0,-0.0005,0.0007,0.0016,0.0019,0.0017,0.0026,0.0004,-0.0003,-0.0025,-0.0045,-0.0065,-0.0114,-0.0141,-0.016,-0.0188,-0.0195,-0.0212,-0.0237,-0.0255,-0.0237,-0.0257,-0.0258,-0.0254,-0.0255,-0.0255,-0.0256,0,0,0.0032,0.0042,0.0046,0.0062,0.0051,0.0058,0.0059,0.0055,0.0064,0.002,0.0026,-0.0028,-0.0058,-0.0079,-0.0121,-0.0148,-0.0162,-0.0185,-0.0188,-0.0195,-0.0213,-0.0224,-0.0228,-0.0191,-0.0191,-0.0191,-0.0228,0,0.0071,0.0112,0.0103,0.0142,0.0163,0.0136,0.0143,0.0132,0.0111,0.0104,0.0046,0.0031,-0.0026,-0.0038,-0.0075,-0.0138,-0.0164,-0.0148,-0.0235,-0.0238,-0.0245,-0.0229,-0.0223,-0.0255,-0.023,-0.023,-0.023,0,0.0116,0.0139,0.0185,0.0212,0.0219,0.023,0.0244,0.0247,0.022,0.0202,0.017,0.0124,0.008,0.0026,-0.0068,-0.0056,-0.0125,-0.018,-0.0183,-0.0212,-0.0252,-0.0272,-0.026,-0.0389,-0.0233,-0.0233,-0.0233,0,0.0163,0.02,0.0242,0.0249,0.0268,0.0281,0.0287,0.0276,0.0296,0.0265,0.0274,0.0203,0.0179,0.0081,-0.0035,-0.0051,-0.0139,-0.0177,-0.0251,-0.0252,-0.0272,-0.0275,-0.0388,-0.024,-0.024,-0.024,-0.024,0,0.0213,0.0247,0.0267,0.0289,0.0344,0.0332,0.0381,0.0372,0.0377,0.0412,0.033,0.0342,0.0191,0.0121,-0.0,-0.0122,-0.0113,-0.0234,-0.0261,-0.0252,-0.0253,-0.0387,-0.0472,-0.0241,-0.0241,-0.0241,-0.024,0,0.026,0.0269,0.0322,0.0351,0.0367,0.0404,0.0452,0.0488,0.0476,0.0518,0.0515,0.0453,0.0358,0.0208,0.0055,-0.0062,-0.0266,-0.0236,-0.0209,-0.0232,-0.0424,-0.0506,-0.0649,-0.07,-0.032,-0.0321,-0.0321,0,0.0287,0.0319,0.0374,0.0411,0.0426,0.048,0.0522,0.0534,0.0582,0.0593,0.0626,0.0551,0.0516,0.0289,0.0067,-0.0138,-0.0276,-0.0271,-0.0306,-0.0426,-0.0537,-0.0595,-0.0631,-0.031,-0.0311,-0.0311,-0.0311,0,0.0341,0.0356,0.04,0.0479,0.0531,0.0601,0.0661,0.0718,0.0738,0.0775,0.0808,0.0781,0.0564,0.0366,0.0078,-0.0078,-0.0367,-0.0282,-0.0419,-0.0545,-0.0603,-0.0667,-0.0291,-0.0313,-0.0313,-0.0313,-0.0313,-0.0312,0.038,0.0421,0.0478,0.0556,0.0621,0.0708,0.0777,0.0846,0.093,0.0992,0.0955,0.0943,0.064,0.0253,0.0025,-0.038,-0.0391,-0.0504,-0.0592,-0.0639,-0.0693,-0.0313,-0.036,-0.036,-0.036,-0.036,-0.036,0,0.0432,0.0479,0.0553,0.0643,0.0724,0.0748,0.0865,0.0938,0.1044,0.1099,0.1126,0.0974,0.0604,0.0216,-0.0326,-0.0621,-0.0733,-0.0797,-0.0886,-0.0907,-0.0578,-0.0582,-0.0663,-0.0663,-0.0662,-0.0662,-0.0662,-0.0662,0.0459,0.0539,0.0577,0.0715,0.078,0.0896,0.0967,0.107,0.1144,0.1213,0.121,0.1178,0.0877,-0.0091,-0.076,-0.0928,-0.1136,-0.1202,-0.1296,-0.1087,-0.1066,-0.1047,-0.1069,-0.1251,-0.1252,-0.157,-0.1573,-0.1576]}],[{"header":{"parameterUnit":"m.s-1","parameterCategory":2,"la1":30.2991,"la2":30.254,"lo1":-89.0895,"lo2":-89.0444,"dy":0.0017,"dx":0.0017,"nx":28,"ny":28,"refTime":"2026-02-16T09:00:00:Z","depth":"2","parameterNumber":2,"parameterNumberName":"U-component_of_CURRENTS"},"data":[0,0,0,0,0,0,0,0,0,0,0,0,0,0,0,0,0,0,0,0,0,0,0,0,0,0,0,0,0,0,0,0,0,0,0,0,0,0,0,0,0,0,0,0,0,0,0,0,0,0,0,0,0,0,0,0,0,0,0.2006,0.2006,0,0.202,0.202,0.202,0.2015,0.2015,0.2014,0.2014,0.2006,0.2006,0.2006,0,0,0,0,0,0,0,0,0,0,0,0,0,0.1973,0.1974,0.2006,0.2006,0.2007,0.202,0.202,0.202,0.2015,0.2015,0.2014,0.2014,0.2006,0.2006,0.2006,0,0,0,0,0,0,0,0,0,0,0,0,0,0.1986,0.1974,0.2006,0.2007,0.2007,0.202,0.202,0.202,0.2015,0.2015,0.2014,0.2014,0.2006,0.2006,0.2006,0.2009,0,0,0.2006,0.2005,0,0,0,0,0,0,0,0,0.1985,0.1987,0.2007,0.2007,0.2008,0.2017,0.2005,0.2016,0.2015,0.201,0.2014,0.2014,0.2009,0.2009,0.2009,0.2009,0.2009,0.2006,0.2005,0.2005,0.2005,0,0,0,0,0,0,0,0.1984,0.1986,0.2009,0.2007,0.2008,0.2006,0.2008,0.2007,0.2009,0.201,0.2011,0.2015,0.2009,0.201,0.2009,0.2008,0.2006,0.2005,0.2005,0.2005,0.2046,0.2047,0,0,0,0,0,0,0.1987,0.1985,0.2009,0.201,0.1998,0.2007,0.2009,0.2013,0.2009,0.2009,0.2015,0.2015,0.201,0.2009,0.2009,0.2042,0.2005,0.2005,0.2005,0.2045,0.2047,0.2048,0,0,0,0,0,0,0.1986,0.1989,0.2009,0.1999,0.2002,0.2008,0.2013,0.2013,0.2021,0.2013,0.2013,0.2024,0.201,0.2009,0.2021,0.204,0.2005,0.2005,0.2044,0.2046,0.2047,0.2089,0,0,0,0,0,0,0.1985,0.1988,0.1993,0.2,0.2003,0.2024,0.2013,0.2013,0.2025,0.2025,0.2021,0.2019,0.2009,0.2021,0.202,0.204,0.2005,0.2042,0.2045,0.2047,0.2086,0.2092,0.2097,0,0,0,0,0,0.1984,0.1991,0.1993,0.1996,0.2008,0.2025,0.2026,0.2028,0.2026,0.2034,0.2034,0.202,0.2035,0.2022,0.2021,0.204,0.2041,0.2044,0.2047,0.2084,0.2091,0.2097,0,0,0,0,0,0,0.1976,0.1991,0.1993,0.2004,0.2018,0.2025,0.2033,0.2035,0.2042,0.2043,0.2032,0.2031,0.2051,0.2041,0.2027,0.206,0.2037,0.204,0.2066,0.2073,0.2078,0.2088,0.2005,0,0,0,0,0,0.1978,0.1989,0.2003,0.2012,0.2021,0.2029,0.2037,0.2041,0.2048,0.205,0.2049,0.2051,0.2061,0.2062,0.2067,0.2081,0.2087,0.2095,0.21,0.2105,0.2114,0.2143,0.2152,0.2057,0.2057,0.2056,0,0,0.1976,0.1987,0.1993,0.2012,0.2022,0.204,0.2033,0.2051,0.2066,0.2049,0.2068,0.2071,0.207,0.209,0.2098,0.2083,0.2137,0.2108,0.2112,0.2119,0.2147,0.2156,0.2164,0.2058,0.2058,0.2058,0,0,0.1982,0.1992,0.2005,0.2021,0.2043,0.2052,0.2061,0.2076,0.2085,0.2103,0.2101,0.2119,0.2122,0.2132,0.2136,0.2175,0.2168,0.2176,0.2207,0.2235,0.2243,0.225,0.2275,0.2284,0.2174,0.2174,0.2174,0,0.198,0.1998,0.2012,0.2031,0.2047,0.206,0.208,0.2094,0.2111,0.2125,0.2115,0.2149,0.2146,0.218,0.2194,0.2188,0.2201,0.218,0.2242,0.2249,0.2256,0.228,0.2289,0.2177,0.2176,0.2176,0.2176,0,0.1996,0.2014,0.2026,0.2055,0.2075,0.2095,0.2119,0.214,0.2151,0.2165,0.2203,0.2206,0.2227,0.223,0.2222,0.2271,0.2265,0.2248,0.2224,0.2268,0.229,0.2299,0.218,0.2179,0.2178,0.2178,0,0,0.1978,0.2027,0.203,0.2048,0.209,0.2103,0.2144,0.2181,0.2207,0.2228,0.2265,0.2287,0.2295,0.2301,0.23,0.2321,0.2377,0.2306,0.2306,0.2329,0.2443,0.2417,0.2425,0.2371,0.2373,0.2374,0.2442,0,0.1986,0.2019,0.2048,0.2083,0.2102,0.2138,0.2172,0.2208,0.2239,0.2278,0.2302,0.2333,0.232,0.2334,0.2359,0.2375,0.2403,0.2361,0.2399,0.2401,0.2371,0.2435,0.224,0.2283,0.245,0.2452,0.2453,0,0.1989,0.2012,0.2045,0.2095,0.2108,0.2132,0.2191,0.2224,0.2289,0.2317,0.2364,0.2383,0.2434,0.2407,0.247,0.2445,0.2453,0.2459,0.2461,0.2429,0.2392,0.2266,0.2292,0.2468,0.2467,0.2465,0.2464,0,0.1956,0.2009,0.2032,0.2049,0.2108,0.2133,0.2167,0.2232,0.2276,0.2345,0.2389,0.2442,0.2481,0.2505,0.253,0.2504,0.2593,0.2554,0.2541,0.2539,0.2378,0.2359,0.26,0.26,0.26,0.26,0.26,0,0.1947,0.1965,0.2016,0.2026,0.2061,0.2109,0.2157,0.2206,0.2289,0.2338,0.2404,0.2456,0.2509,0.2564,0.2564,0.2596,0.2626,0.2568,0.2563,0.2388,0.237,0.2527,0.2517,0.2603,0.2602,0.2602,0.2601,0,0.1906,0.1941,0.1968,0.2025,0.2045,0.2066,0.2154,0.2188,0.2277,0.2349,0.2378,0.2494,0.256,0.261,0.2659,0.2645,0.2665,0.2663,0.2459,0.243,0.2581,0.2573,0.2655,0.2655,0.2655,0.2655,0.2655,0,0.1888,0.1897,0.1953,0.1965,0.199,0.2035,0.2065,0.2165,0.221,0.2356,0.2384,0.2501,0.2555,0.265,0.2646,0.2666,0.2685,0.2488,0.2402,0.2604,0.2591,0.2583,0.2575,0.2203,0.2199,0.2196,0.2194,0,0.1849,0.1869,0.1889,0.1919,0.1946,0.1981,0.2034,0.2076,0.2183,0.2261,0.2354,0.2419,0.2528,0.2474,0.2528,0.2505,0.2469,0.2427,0.2696,0.2226,0.2185,0.217,0.2175,0.2166,0.2169,0.2171,0.2173,0.2174,0.1815,0.1817,0.1841,0.1863,0.1891,0.1905,0.1908,0.1976,0.2043,0.2121,0.2236,0.2265,0.2313,0.2304,0.2248,0.2212,0.2373,0.2248,0.2254,0.2264,0.2207,0.2168,0.2136,0.2138,0.214,0.2142,0.2144,0,0.1759,0.1767,0.1784,0.1797,0.1788,0.1832,0.1867,0.185,0.188,0.1973,0.2037,0.1914,0.191,0.1948,0.1862,0.1885,0.1834,0.1795,0.1694,0.1725,0.1752,0.1664,0.1451,0.1448,0.1446,0.1443,0,0,0.1729,0.1714,0.172,0.1685,0.1692,0.1653,0.1649,0.1646,0.1684,0.1681,0.1687,0.1835,0.191,0.1647,0.1632,0.1517,0.1601,0.1465,0.203,0.1943,0.1966,0.2036,0.194,0,0,0,0,0]},{"header":{"parameterUnit":"m.s-1","parameterCategory":2,"la1":30.2991,"la2":30.254,"lo1":-89.0895,"lo2":-89.0444,"dy":0.0017,"dx":0.0017,"nx":28,"ny":28,"refTime":"2026-02-16T09:00:00:Z","depth":"2","parameterNumber":3,"parameterNumberName":"V-component_of_CURRENTS"},"data":[0,0,0,0,0,0,0,0,0,0,0,0,0,0,0,0,0,0,0,0,0,0,0,0,0,0,0,0,0,0,0,0,0,0,0,0,0,0,0,0,0,0,0,0,0,0,0,0,0,0,0,0,0,0,0,0,0,0,0.0029,0.0029,0,-0.0016,-0.0017,-0.0017,-0.0054,-0.0054,-0.0054,-0.0054,-0.0116,-0.0117,-0.0119,0,0,0,0,0,0,0,0,0,0,0,0,0,0.0043,0.0043,0.0029,0.0029,0.0029,-0.0016,-0.0017,-0.0018,-0.0054,-0.0054,-0.0054,-0.0054,-0.0115,-0.0117,-0.0119,0,0,0,0,0,0,0,0,0,0,0,0,0,0.002,0.0043,0.003,0.0007,0.0004,-0.0016,-0.0017,-0.0018,-0.0054,-0.0054,-0.0054,-0.0055,-0.0115,-0.0117,-0.0119,-0.0126,0,0,-0.0126,-0.0126,0,0,0,0,0,0,0,0,0.0021,0.0019,0.001,0.0008,0.0005,-0.0028,-0.0035,-0.0054,-0.0054,-0.0033,-0.0054,-0.0055,-0.0087,-0.0091,-0.0101,-0.0129,-0.0132,-0.0126,-0.0127,-0.0128,-0.0129,0,0,0,0,0,0,0,0.0023,0.002,0.001,0.001,0.0007,-0.0016,-0.0019,-0.0039,-0.0059,-0.0035,-0.0038,-0.004,-0.0088,-0.0099,-0.0103,-0.0133,-0.0126,-0.0128,-0.0129,-0.013,-0.0172,-0.0172,0,0,0,0,0,0,0.0034,0.0022,0.0011,0.0008,0.0014,-0.0016,-0.002,-0.0018,-0.0059,-0.0065,-0.004,-0.0041,-0.0095,-0.01,-0.0105,-0.011,-0.0128,-0.013,-0.0131,-0.0172,-0.0172,-0.0172,0,0,0,0,0,0,0.0035,0.0034,0.0013,0.0015,0.0011,-0.0015,-0.0014,-0.0019,-0.0029,-0.0062,-0.0068,-0.0044,-0.0096,-0.0102,-0.0118,-0.0113,-0.0131,-0.0133,-0.0172,-0.0172,-0.0172,-0.0123,0,0,0,0,0,0,0.0035,0.0034,0.0037,0.0016,0.0012,0.0008,-0.0013,-0.002,-0.0029,-0.0032,-0.0067,-0.0074,-0.0096,-0.0114,-0.012,-0.0116,-0.0135,-0.0173,-0.0172,-0.0172,-0.0125,-0.0121,-0.0118,0,0,0,0,0,0.0036,0.0048,0.0038,0.0036,0.0018,0.0009,0.0004,-0.0018,-0.0029,-0.0029,-0.0053,-0.0073,-0.0116,-0.0116,-0.0122,-0.0119,-0.0173,-0.0172,-0.0172,-0.0127,-0.0122,-0.0118,0,0,0,0,0,0,0.0055,0.0044,0.0034,0.0041,0.0027,0.0003,0.0002,-0.0014,-0.0033,-0.0036,-0.0069,-0.0077,-0.009,-0.011,-0.0109,-0.0131,-0.0148,-0.0149,-0.0112,-0.0108,-0.0104,-0.0087,-0.0136,0,0,0,0,0,0.0062,0.0066,0.0049,0.0054,0.005,0.0026,0.0018,0.0005,-0.0014,-0.0023,-0.0048,-0.0074,-0.0093,-0.0104,-0.0126,-0.0136,-0.0156,-0.0139,-0.0135,-0.0132,-0.0123,-0.0152,-0.015,-0.0171,-0.0171,-0.0171,0,0,0.007,0.0065,0.0067,0.0058,0.0045,0.0049,0.002,0.0016,0.0017,-0.0026,-0.0034,-0.0062,-0.0093,-0.0105,-0.0113,-0.0122,-0.0137,-0.0132,-0.0129,-0.0121,-0.0151,-0.0149,-0.0148,-0.017,-0.017,-0.017,0,0,0.0096,0.0086,0.0099,0.0092,0.008,0.0067,0.0069,0.0046,0.0034,0.0023,-0.0007,-0.0029,-0.0061,-0.0081,-0.0095,-0.0085,-0.0118,-0.0096,-0.0065,-0.0093,-0.0091,-0.009,-0.011,-0.0111,-0.0094,-0.0094,-0.0094,0,0.0106,0.0121,0.0101,0.0112,0.0113,0.008,0.0096,0.0079,0.0054,0.0049,0.0028,-0.0018,-0.0048,-0.0059,-0.0058,-0.0076,-0.0097,-0.0076,-0.0087,-0.0087,-0.0086,-0.0108,-0.011,-0.0092,-0.0092,-0.0092,-0.0092,0,0.0141,0.0152,0.0159,0.0163,0.0162,0.0169,0.0149,0.0141,0.0119,0.01,0.008,0.0035,0.001,-0.0007,-0.0031,-0.0041,-0.0058,-0.0079,-0.0095,-0.0081,-0.0105,-0.0108,-0.0088,-0.0089,-0.009,-0.009,0,0,0.0172,0.0183,0.0186,0.0201,0.0191,0.0198,0.0198,0.0193,0.02,0.0158,0.0159,0.0112,0.0082,0.0064,0.0026,-0.0002,-0.0021,-0.0036,-0.0038,-0.0051,-0.0079,-0.0094,-0.0099,-0.0047,-0.0047,-0.0048,-0.0096,0,0.0207,0.0245,0.0238,0.0274,0.0293,0.0268,0.0275,0.0263,0.0242,0.0232,0.0177,0.0162,0.0111,0.0099,0.0062,0.0002,-0.0027,-0.0006,-0.0096,-0.0098,-0.0109,-0.0102,-0.0082,-0.0123,-0.0099,-0.0099,-0.01,0,0.0247,0.0269,0.0311,0.0337,0.0343,0.0354,0.0364,0.0366,0.0337,0.0319,0.0286,0.0243,0.0199,0.0151,0.0056,0.0071,0.0004,-0.0049,-0.0052,-0.0083,-0.0118,-0.0135,-0.013,-0.0105,-0.0104,-0.0104,-0.0103,0,0.0289,0.0323,0.0362,0.0369,0.0387,0.0398,0.0403,0.0391,0.0408,0.0374,0.038,0.031,0.0284,0.0189,0.0078,0.0067,-0.0028,-0.0059,-0.0134,-0.0136,-0.0144,-0.0146,-0.0124,-0.0123,-0.0123,-0.0123,-0.0123,0,0.0333,0.0364,0.0384,0.0404,0.0453,0.0444,0.0487,0.0476,0.0477,0.0507,0.0429,0.0435,0.0292,0.022,0.0106,-0.0018,-0.0009,-0.0123,-0.0149,-0.0127,-0.0127,-0.0132,-0.0132,-0.0125,-0.0125,-0.0124,-0.0124,0,0.0374,0.0383,0.0432,0.046,0.0474,0.0507,0.0552,0.0583,0.0569,0.0604,0.06,0.0533,0.0434,0.0291,0.0139,0.003,-0.0094,-0.0141,-0.0102,-0.0123,-0.0191,-0.0188,-0.0229,-0.023,-0.023,-0.0231,-0.0232,0,0.0398,0.0427,0.0478,0.0513,0.0527,0.0576,0.0614,0.0625,0.0666,0.067,0.0696,0.0614,0.0571,0.0343,0.0132,-0.0066,-0.0094,-0.0177,-0.0199,-0.018,-0.0201,-0.0197,-0.0194,-0.0191,-0.0191,-0.0192,-0.0192,0,0.0446,0.046,0.05,0.0574,0.0621,0.0687,0.0742,0.0792,0.0808,0.0836,0.0853,0.0818,0.06,0.0402,0.0126,-0.0012,-0.0147,-0.0187,-0.0177,-0.0166,-0.0148,-0.0168,-0.0165,-0.0193,-0.0193,-0.0193,-0.0193,-0.0193,0.048,0.0518,0.057,0.0643,0.0703,0.0783,0.0846,0.0905,0.0977,0.1017,0.0975,0.0922,0.0694,0.0342,0.0102,-0.0157,-0.015,-0.0238,-0.0236,-0.0234,-0.022,-0.0204,-0.0256,-0.0256,-0.0256,-0.0257,-0.0257,0,0.0526,0.0569,0.0638,0.0721,0.0796,0.082,0.0925,0.0985,0.1071,0.1093,0.1099,0.0885,0.0657,0.0391,0.0012,-0.0211,-0.023,-0.0283,-0.0252,-0.0249,-0.0247,-0.0233,-0.0273,-0.0274,-0.0274,-0.0275,0,0,0.0549,0.0622,0.0659,0.0785,0.0846,0.0951,0.1016,0.1094,0.1136,0.116,0.1126,0.1058,0.0737,0.0468,0.0161,-0.0056,-0.0103,-0.0103,-0.0067,0.0008,0.0013,-0.0199,-0.0171,0,0,0,0,0]}],[{"header":{"parameterUnit":"m.s-1","parameterCategory":2,"la1":30.2991,"la2":30.254,"lo1":-89.0895,"lo2":-89.0444,"dy":0.0017,"dx":0.0017,"nx":28,"ny":28,"refTime":"2026-02-16T09:00:00:Z","depth":"4","parameterNumber":2,"parameterNumberName":"U-component_of_CURRENTS"},"data":[0,0,0,0,0,0,0,0,0,0,0,0,0,0,0,0,0,0,0,0,0,0,0,0,0,0,0,0,0,0,0,0,0,0,0,0,0,0,0,0,0,0,0,0,0,0,0,0,0,0,0,0,0,0,0,0,0,0,0.1324,0.1325,0,0.1368,0.1369,0.1369,0.1407,0.1408,0.1408,0.1409,0.1456,0.1457,0.1457,0,0,0,0,0,0,0,0,0,0,0,0,0,0.1263,0.1264,0.1324,0.1325,0.1326,0.1368,0.1369,0.1369,0.1407,0.1408,0.1409,0.1409,0.1456,0.1456,0.1457,0,0,0,0,0,0,0,0,0,0,0,0,0,0.1295,0.1264,0.1324,0.1351,0.1354,0.1368,0.1369,0.1369,0.1407,0.1408,0.1409,0.1409,0.1455,0.1456,0.1457,0.1448,0,0,0.1461,0.1461,0,0,0,0,0,0,0,0,0.1293,0.1297,0.1346,0.1349,0.1352,0.1384,0.1364,0.1396,0.1407,0.1385,0.1409,0.141,0.1432,0.1435,0.144,0.145,0.1452,0.1461,0.1462,0.1462,0.1462,0,0,0,0,0,0,0,0.1291,0.1296,0.134,0.1347,0.135,0.1357,0.1362,0.137,0.1403,0.1387,0.139,0.1397,0.1434,0.1439,0.1441,0.1452,0.1461,0.1462,0.1463,0.1463,0.1543,0.1544,0,0,0,0,0,0,0.1288,0.1294,0.1339,0.1342,0.1326,0.1358,0.1364,0.1372,0.1403,0.1408,0.1396,0.1399,0.1436,0.144,0.1443,0.1509,0.1462,0.1463,0.1464,0.1541,0.1543,0.1545,0,0,0,0,0,0,0.1287,0.1292,0.1337,0.132,0.1326,0.1358,0.1367,0.1373,0.1407,0.141,0.1416,0.1429,0.1437,0.1442,0.1479,0.1509,0.1464,0.1465,0.154,0.1542,0.1544,0.1593,0,0,0,0,0,0,0.1285,0.1291,0.1309,0.1319,0.1327,0.1365,0.1367,0.1373,0.1408,0.1413,0.1439,0.1442,0.1438,0.1477,0.148,0.1509,0.1465,0.1538,0.1541,0.1543,0.159,0.1597,0.1603,0,0,0,0,0,0.1282,0.1299,0.131,0.1316,0.1347,0.1366,0.1371,0.1394,0.141,0.1428,0.145,0.1443,0.1497,0.1479,0.1482,0.1513,0.1537,0.154,0.1543,0.1587,0.1595,0.1603,0,0,0,0,0,0,0.1282,0.1305,0.1317,0.1341,0.1362,0.1373,0.1397,0.1411,0.1442,0.1457,0.1459,0.1464,0.1509,0.1504,0.1485,0.1545,0.1517,0.1521,0.1549,0.1557,0.1563,0.1567,0.1466,0,0,0,0,0,0.129,0.1312,0.1329,0.1353,0.1366,0.1388,0.1404,0.1421,0.1443,0.1459,0.1477,0.1499,0.1519,0.1534,0.1549,0.1578,0.1578,0.1602,0.1608,0.1614,0.162,0.1644,0.1654,0.1556,0.1556,0.1556,0,0,0.1296,0.1313,0.1327,0.1356,0.1376,0.1398,0.1401,0.1436,0.1461,0.1458,0.1509,0.1524,0.1533,0.1569,0.1589,0.1573,0.1643,0.1618,0.1622,0.1626,0.1649,0.1658,0.1667,0.1558,0.1557,0.1557,0,0,0.1311,0.1338,0.1359,0.1379,0.1415,0.1427,0.1444,0.1473,0.1499,0.1539,0.1549,0.1584,0.1613,0.1626,0.1634,0.1686,0.1678,0.1696,0.1732,0.1756,0.1764,0.1771,0.1785,0.1793,0.1698,0.1698,0.1698,0,0.1321,0.1348,0.1369,0.1393,0.1416,0.1443,0.147,0.1495,0.1535,0.156,0.1566,0.1629,0.1638,0.168,0.1702,0.1701,0.1711,0.1699,0.1764,0.1771,0.1777,0.179,0.1798,0.1701,0.17,0.17,0.17,0,0.1341,0.1374,0.1391,0.143,0.1456,0.1487,0.1519,0.1558,0.1592,0.1614,0.1676,0.1693,0.173,0.1741,0.1738,0.1793,0.1785,0.1769,0.1741,0.179,0.1801,0.1808,0.1705,0.1704,0.1703,0.1702,0,0,0.1328,0.1392,0.1401,0.1428,0.1482,0.1501,0.1556,0.1603,0.1643,0.1689,0.1739,0.1782,0.1801,0.1812,0.182,0.1842,0.1896,0.1831,0.1831,0.1842,0.1951,0.1835,0.1831,0.1895,0.1897,0.1898,0.1941,0,0.134,0.1388,0.1421,0.1473,0.1499,0.1547,0.1591,0.1641,0.1687,0.1742,0.1779,0.1828,0.1824,0.1854,0.1878,0.1894,0.1919,0.1886,0.1906,0.1907,0.1793,0.1837,0.1903,0.1946,0.1948,0.1949,0.195,0,0.1342,0.1377,0.1429,0.1496,0.1514,0.1553,0.1632,0.1675,0.1753,0.1791,0.1851,0.188,0.1939,0.1921,0.1978,0.196,0.1966,0.1968,0.197,0.1848,0.1804,0.1888,0.1964,0.1962,0.1961,0.1961,0.196,0,0.1307,0.138,0.1424,0.1448,0.1526,0.157,0.1618,0.1696,0.1746,0.1832,0.188,0.194,0.1988,0.2008,0.2028,0.2012,0.2075,0.2047,0.1947,0.1939,0.2009,0.2,0.2084,0.2084,0.2084,0.2084,0.2084,0,0.129,0.1329,0.1418,0.1439,0.1501,0.1561,0.1634,0.1691,0.1783,0.1834,0.1909,0.1953,0.2016,0.2057,0.2054,0.2025,0.21,0.1961,0.1944,0.2029,0.2022,0.2014,0.2005,0.2085,0.2085,0.2085,0.2085,0,0.1241,0.13,0.1356,0.145,0.1487,0.1531,0.1647,0.1689,0.1788,0.1861,0.1896,0.1993,0.2032,0.2076,0.211,0.2051,0.2036,0.2008,0.2107,0.2094,0.1877,0.187,0.189,0.1886,0.1883,0.188,0.1878,0,0.1216,0.1242,0.1354,0.1389,0.1439,0.1519,0.1568,0.168,0.1723,0.186,0.1879,0.1973,0.2015,0.1973,0.2024,0.2012,0.1988,0.1969,0.1908,0.1876,0.1859,0.1857,0.1855,0.1873,0.1872,0.1872,0.1871,0,0.1167,0.1222,0.1267,0.1342,0.1404,0.1463,0.1542,0.157,0.1682,0.1793,0.1814,0.1834,0.1878,0.189,0.1905,0.189,0.197,0.1935,0.1941,0.1884,0.1856,0.1841,0.1843,0.186,0.1861,0.1863,0.1863,0,0.1134,0.1154,0.1222,0.1277,0.135,0.1376,0.1432,0.1475,0.1536,0.1678,0.1678,0.1766,0.1854,0.1828,0.1837,0.182,0.1783,0.1714,0.173,0.1743,0.1673,0.1615,0.1536,0,0,0,0,0,0.109,0.1101,0.1148,0.1198,0.1266,0.1305,0.1397,0.145,0.1562,0.1534,0.1602,0.1627,0.164,0.169,0.164,0.1774,0.1795,0.1709,0.1725,0.1799,0.1812,0.1743,0,0,0,0,0,0,0.1059,0.11,0.1116,0.112,0.1136,0.1195,0.1245,0.1321,0.1311,0.1428,0.1443,0.153,0.1568,0.1647,0.1608,0.1623,0.1599,0.1769,0.1765,0.1792,0.1804,0.1814,0.1747,0,0,0,0,0]},{"header":{"parameterUnit":"m.s-1","parameterCategory":2,"la1":30.2991,"la2":30.254,"lo1":-89.0895,"lo2":-89.0444,"dy":0.0017,"dx":0.0017,"nx":28,"ny":28,"refTime":"2026-02-16T09:00:00:Z","depth":"4","parameterNumber":3,"parameterNumberName":"V-component_of_CURRENTS"},"data":[0,0,0,0,0,0,0,0,0,0,0,0,0,0,0,0,0,0,0,0,0,0,0,0,0,0,0,0,0,0,0,0,0,0,0,0,0,0,0,0,0,0,0,0,0,0,0,0,0,0,0,0,0,0,0,0,0,0,0.0137,0.0137,0,0.0109,0.0109,0.0109,0.009,0.009,0.009,0.009,0.0053,0.0052,0.0051,0,0,0,0,0,0,0,0,0,0,0,0,0,0.0145,0.0145,0.0137,0.0137,0.0136,0.011,0.0109,0.0109,0.009,0.009,0.009,0.009,0.0053,0.0052,0.0051,0,0,0,0,0,0,0,0,0,0,0,0,0,0.0131,0.0145,0.0137,0.0124,0.0123,0.011,0.0109,0.0108,0.009,0.009,0.009,0.009,0.0054,0.0052,0.0051,0.0043,0,0,0.0047,0.0046,0,0,0,0,0,0,0,0,0.0132,0.013,0.0127,0.0125,0.0124,0.0104,0.0098,0.0087,0.009,0.0101,0.009,0.009,0.007,0.0067,0.0061,0.0042,0.004,0.0046,0.0046,0.0045,0.0045,0,0,0,0,0,0,0,0.0133,0.0131,0.0125,0.0126,0.0125,0.0111,0.0109,0.0096,0.0085,0.01,0.0099,0.0098,0.0069,0.0062,0.006,0.004,0.0046,0.0045,0.0044,0.0044,0.0012,0.0012,0,0,0,0,0,0,0.014,0.0132,0.0126,0.0124,0.0129,0.0111,0.0109,0.011,0.0086,0.0082,0.0098,0.0097,0.0065,0.0061,0.0058,0.0056,0.0045,0.0044,0.0043,0.0012,0.0012,0.0012,0,0,0,0,0,0,0.014,0.0139,0.0127,0.0128,0.0126,0.0111,0.0112,0.0109,0.0104,0.0084,0.008,0.0097,0.0064,0.006,0.0051,0.0054,0.0043,0.0042,0.0012,0.0012,0.0012,0.0046,0,0,0,0,0,0,0.014,0.014,0.0143,0.0129,0.0126,0.0124,0.0112,0.0109,0.0104,0.0103,0.0082,0.0078,0.0064,0.0054,0.005,0.0052,0.0041,0.0012,0.0012,0.0012,0.0045,0.0047,0.0049,0,0,0,0,0,0.0141,0.0148,0.0143,0.0143,0.0131,0.0124,0.0121,0.011,0.0104,0.0105,0.0091,0.0079,0.0051,0.0053,0.0048,0.005,0.0012,0.0012,0.0012,0.0044,0.0046,0.0049,0,0,0,0,0,0,0.0153,0.0146,0.0141,0.0146,0.0137,0.0121,0.0122,0.0113,0.0102,0.0102,0.0081,0.0076,0.0069,0.0054,0.0057,0.004,0.0029,0.0028,0.0054,0.0056,0.0059,0.007,0.0039,0,0,0,0,0,0.0157,0.0162,0.015,0.0154,0.0152,0.0137,0.0133,0.0126,0.0114,0.0109,0.0094,0.0078,0.0065,0.0058,0.0044,0.0036,0.0016,0.0033,0.0035,0.0037,0.0043,0.0013,0.0013,0.0013,0.0013,0.0013,0,0,0.0164,0.016,0.0163,0.0157,0.015,0.0153,0.0134,0.0132,0.0134,0.0107,0.0104,0.0085,0.0064,0.0056,0.0051,0.0045,0.0026,0.0037,0.0039,0.0044,0.0013,0.0013,0.0013,0.0013,0.0013,0.0013,0,0,0.018,0.0175,0.0185,0.0181,0.0174,0.0166,0.0167,0.0153,0.0146,0.014,0.0121,0.0106,0.0086,0.0071,0.0061,0.0065,0.0039,0.0059,0.0079,0.0049,0.0049,0.0049,0.0023,0.002,0.0059,0.006,0.006,0,0.0188,0.0199,0.0186,0.0194,0.0196,0.0175,0.0187,0.0176,0.016,0.0156,0.0145,0.0112,0.0093,0.0082,0.0083,0.0071,0.005,0.0072,0.0053,0.0052,0.0051,0.0024,0.002,0.0061,0.0061,0.0061,0.0061,0,0.0211,0.022,0.0225,0.023,0.0229,0.0235,0.0222,0.0217,0.0205,0.0192,0.0176,0.0146,0.0128,0.0115,0.0102,0.0086,0.0073,0.0059,0.0048,0.0053,0.0024,0.002,0.0063,0.0063,0.0062,0.0062,0,0,0.0229,0.024,0.0243,0.0255,0.025,0.0255,0.0256,0.0252,0.0255,0.0228,0.0225,0.0194,0.0173,0.016,0.0134,0.0107,0.008,0.0084,0.0082,0.0062,0.0016,0.0008,0.0002,0.0062,0.0062,0.0061,-0.0001,0,0.0252,0.0279,0.0277,0.0304,0.0317,0.0303,0.0307,0.0299,0.0284,0.0274,0.0234,0.0223,0.0191,0.0183,0.015,0.01,0.007,0.0099,0.0011,0.0009,0.0004,-0.0003,0.0059,-0.0005,-0.0006,-0.0006,-0.0007,0,0.0277,0.0293,0.0325,0.0346,0.0351,0.0362,0.0369,0.037,0.0346,0.0332,0.0306,0.0275,0.0236,0.0207,0.012,0.0139,0.0084,0.004,0.0036,0.0015,-0.0008,-0.0012,-0.0015,-0.0015,-0.0014,-0.0014,-0.0013,0,0.03,0.0329,0.0359,0.0365,0.0381,0.0393,0.0399,0.0388,0.0399,0.037,0.0372,0.0313,0.0289,0.0211,0.012,0.012,0.002,0.0006,-0.0056,-0.0057,-0.0045,-0.0044,-0.0057,-0.0057,-0.0056,-0.0056,-0.0056,0,0.0325,0.035,0.0374,0.039,0.0429,0.0425,0.0459,0.045,0.0448,0.0463,0.0406,0.0399,0.0289,0.0221,0.0131,0.0025,0.0025,-0.0052,-0.0074,-0.003,-0.0027,-0.0048,-0.0047,-0.0059,-0.0058,-0.0058,-0.0057,0,0.0346,0.036,0.0399,0.0427,0.0443,0.0469,0.0509,0.0529,0.0518,0.0534,0.053,0.0464,0.037,0.0256,0.0124,0.0047,-0.0059,-0.0097,-0.0038,-0.0056,-0.0119,-0.0115,-0.017,-0.0171,-0.0172,-0.0172,-0.0173,0,0.0358,0.038,0.0431,0.0461,0.0478,0.0521,0.0552,0.0562,0.0585,0.0573,0.058,0.0503,0.0443,0.0254,0.0124,-0.0051,-0.0077,-0.0134,-0.013,-0.0115,-0.0131,-0.0126,-0.0121,-0.0174,-0.0174,-0.0174,-0.0175,0,0.038,0.04,0.0432,0.0496,0.0539,0.0591,0.0633,0.0657,0.0664,0.0662,0.0624,0.0524,0.0414,0.0258,0.0121,-0.0005,-0.0099,-0.0142,-0.0141,-0.0138,-0.0121,-0.0134,-0.0129,-0.0177,-0.0177,-0.0176,-0.0176,0,0.0397,0.0424,0.047,0.0527,0.0585,0.0636,0.0659,0.0682,0.0702,0.0686,0.067,0.0546,0.0474,0.0282,0.0155,0.0028,-0.0005,-0.0048,-0.0053,-0.0052,-0.0003,0.0037,0.0011,0,0,0,0,0,0.0411,0.0444,0.0498,0.0557,0.0616,0.0653,0.0704,0.0719,0.073,0.0712,0.0694,0.059,0.0395,0.031,0.0183,0.0134,-0.0032,-0.0021,-0.0085,-0.0191,-0.0188,-0.0152,0,0,0,0,0,0,0.0418,0.0469,0.0497,0.0573,0.0619,0.0685,0.0719,0.0728,0.0717,0.0707,0.0608,0.0556,0.037,0.0472,0.0181,0.0142,0.0082,-0.011,-0.0113,-0.0192,-0.019,-0.0187,-0.0149,0,0,0,0,0]}]]